Regional Weather Roundup
Issued by NWS

Home | Current Version | Previous Version | Text Only | Print | Product List | Glossary Off
Versions: 1 2 3 4 5 6 7 8 9 10 11 12 13 14 15 16 17 18 19 20 21 22 23 24 25 26 27 28 29 30 31 32 33 34 35 36 37 38 39 40 41 42 43 44 45 46 47 48 49 50

000
ASUS45 KCYS 280910
RWRWY

WYOMING REGIONAL WEATHER ROUNDUP
NATIONAL WEATHER SERVICE CHEYENNE WY
200 AM MST SUN DEC 28 2014

NOTE:  "FAIR" INDICATES FEW OR NO CLOUDS BELOW 12,000 FEET
WITH NO SIGNIFICANT WEATHER AND/OR OBSTRUCTIONS TO VISIBILITY.

WYZ001-281000-
YELLOWSTONE NATIONAL PARK

CITY           SKY/WX    TMP DP  RH WIND       PRES   REMARKS
LK YELLOWSTONE   N/A     11   7  84 VRB3      29.90F
W YELLOWSTONE  NOT AVBL

$$
WYZ002>013-054>058-071-098>099-281000-
NORTHERN WYOMING

CITY           SKY/WX    TMP DP  RH WIND       PRES   REMARKS
JACKSON        CLOUDY    16  16 100 S12       29.98F WCI   3
CODY           MOCLDY    27   9  46 S6        29.86R WCI  20
GREYBULL       CLOUDY     0  -4  83 CALM      29.96F
WORLAND        FAIR      -8 -13  78 SW5       29.94F WCI -19
SHERIDAN       FAIR       4  -2  76 CALM      29.85F
BUFFALO        FAIR      18   4  54 W9        29.84F WCI   7
GILLETTE       FAIR      16   5  62 SW15      29.89S WCI   1
HULETT           N/A    N/A N/A N/A MISG        N/A
NEWCASTLE      FAIR       9   3  78 CALM      29.98R

$$
WYZ014>020-022>026-101>103-281000-
CENTRAL WYOMING

CITY           SKY/WX    TMP DP  RH WIND       PRES   REMARKS
BIG PINEY      CLOUDY   -10 -14  82 E5        30.01F WCI -22
PINEDALE       CLOUDY    -4  -8  84 W3        30.00F
DUBOIS         NOT AVBL
LANDER         FAIR      11  -1  58 E3        29.86F
RIVERTON       FAIR      10   0  63 SE6       29.88F WCI   0
CASPER         FAIR      18   8  65 SW22      29.91F WCI   1
DOUGLAS        FAIR      21  10  62 W13       29.93F WCI   9

$$
WYZ021-027>030-104>119-281000-
SOUTHERN WYOMING

CITY           SKY/WX    TMP DP  RH WIND       PRES   REMARKS
EVANSTON       MOCLDY    13   5  70 SW17      30.03F WCI  -4
FORT BRIDGER   CLOUDY    20   7  57 W17G26    30.03F WCI   5
ROCK SPRINGS   LGT SNOW  14   9  80 W21       30.03R WCI  -4
DIXON          CLOUDY    19   8  62 SW15G24   30.10S WCI   5
RAWLINS        CLOUDY    15   6  67 SW17      29.98S WCI  -1
SARATOGA       CLOUDY    16   7  67 CALM      30.00S
LARAMIE        FAIR      13  -1  54 SW21      29.89F WCI  -5
CHEYENNE       FAIR      13   0  56 CALM      29.92F
TORRINGTON     FAIR       5  -1  76 E6        29.97F WCI  -6
PINE BLUFFS    FAIR       0  -4  85 MISG      29.98F

$$



USA.gov is the U.S. government's official web portal to all federal, state and local government web resources and services.